Regional Weather Roundup
Issued by NWS

Home | Current Version | Previous Version | Text Only | Print | Product List | Glossary On
Versions: 1 2 3 4 5 6 7 8 9 10 11 12 13 14 15 16 17 18 19 20 21 22 23 24 25 26 27 28
000
ASUS44 KBMX 282310
RWRAL

ALABAMA REGIONAL WEATHER ROUNDUP
NATIONAL WEATHER SERVICE BIRMINGHAM AL
600 PM CDT THU APR 28 2016

NOTE: "FAIR" INDICATES FEW OR NO CLOUDS BELOW 12,000 FEET
WITH NO SIGNIFICANT WEATHER AND/OR OBSTRUCTIONS TO VISIBILITY.

THE REMARK "TC" DENOTES TEMPERATURE IN DEGREES CELSIUS.

ALZ001>011-014-016>018-020-290000-
NORTH ALABAMA

CITY           SKY/WX    TMP DP  RH WIND       PRES   REMARKS
MUSCLE SHOALS  SUNNY     85  53  33 W9        29.94R
HUNTSVILLE     MOSUNNY   85  55  35 W7        29.93R
DECATUR        SUNNY     83  56  39 NW9       29.93R
HALEYVILLE     FAIR      82  59  45 MISG      29.97R
GADSDEN        SUNNY     83  57  41 W8        29.93R
$$

ALZ012-013-022-023-030>036-040>044-290000-
WEST CENTRAL ALABAMA

CITY           SKY/WX    TMP DP  RH WIND       PRES   REMARKS
TUSCALOOSA     SUNNY     84  60  44 S5        29.92S
$$

ALZ015-024>027-033>036-040>044-290000-
CENTRAL ALABAMA

CITY           SKY/WX    TMP DP  RH WIND       PRES   REMARKS
BIRMINGHAM     MOSUNNY   84  59  42 W9        29.95R
MONTGOMERY     MOSUNNY   83  68  60 S6        29.93R
SHELBY CO ARPT SUNNY     82  59  45 CALM      29.94R
MAXWELL AFB    CLOUDY    82  70  68 S8        29.92R
GREENVILLE     FAIR      81  68  64 S6        29.94R
$$

ALZ019-021-028-029-037-038-045>048-290000-
EAST CENTRAL ALABAMA

CITY           SKY/WX    TMP DP  RH WIND       PRES   REMARKS
ANNISTON       PTSUNNY   83  58  42 SW8       29.94R
ALEXANDER CITY SUNNY     80  71  74 SW7       29.95R
AUBURN         MOSUNNY   78  69  73 SW9       29.96
$$

ALZ051>064-290000-
SOUTHWEST ALABAMA

CITY           SKY/WX    TMP DP  RH WIND       PRES   REMARKS
MOBILE         MOSUNNY   79  67  66 S7        29.95S
BROOKLEY FIELD MOSUNNY   78  68  71 SE5       29.95S
EVERGREEN      CLOUDY    80  70  71 S6        29.95S
$$

ALZ049-050-065>069-290000-
SOUTHEAST ALABAMA

CITY           SKY/WX    TMP DP  RH WIND       PRES   REMARKS
DOTHAN         CLOUDY    79  68  69 SW10      29.99R
OZARK          MOSUNNY   79  71  76 SW8       29.95S
TROY           CLOUDY    80  70  71 S8        29.96R
EUFAULA        FAIR      80  69  69 CALM      29.94R
$$




USA.gov is the U.S. government's official web portal to all federal, state and local government web resources and services.